"2010-12-04 00:00:00",391981,17.22,313.5,7.895,1.256,13.98,104.2638,10.19,11.35,26.8,0,110.1,13.33,10.98,275.5
"2010-12-04 00:00:30",391982,16.16,311.2,6.56,1.617,14.13,104.2506,10.15,11.34,26.97,0,110.1,13.34,10.94,273.2
"2010-12-04 00:01:00",391983,15.69,310.1,5.71,1.059,13.96,104.2362,10.12,11.37,27.15,0,110.1,13.33,10.91,272.1
"2010-12-04 00:01:30",391984,16.03,316.3,6.443,1.11,13.96,104.2359,10.12,11.33,27.24,0,110.1,13.33,10.90,278.3
"2010-12-04 00:02:00",391985,17.01,313.6,6.42,1.236,14.18,104.232,10.11,11.24,27.3,0,110.1,13.34,10.89,275.6
"2010-12-04 00:02:30",391986,15.49,304.6,5.035,1.215,13.03,104.2078,10.05,11.2,27.36,0,110.1,13.34,10.83,266.6
"2010-12-04 00:03:00",391987,15.9,307.6,6.618,2.048,13.27,104.2053,10.04,11.23,27.37,0,110.1,13.34,10.83,269.6
"2010-12-04 00:03:30",391988,15.63,310.9,4.736,1.532,13.69,104.2047,10.04,11.24,27.5,0,110.1,13.34,10.82,272.9
"2010-12-04 00:04:00",391989,14.55,311.6,5.936,1.183,14.6,104.2047,10.04,11.27,27.61,0,110.1,13.34,10.82,273.6
"2010-12-04 00:04:30",391990,15.1,312.3,7.928,1.638,13.84,104.1947,10.01,11.17,27.62,0,110.1,13.34,10.80,274.3
"2010-12-04 00:05:00",391991,15.7,312.1,8.77,1.55,13.66,104.1764,9.97,11.12,27.69,0,110.1,13.34,10.75,274.1
"2010-12-04 00:05:30",391992,13.31,297.9,4.094,0.819,11.35,104.1764,9.97,11.06,27.81,0,110.1,13.34,10.75,259.9
"2010-12-04 00:06:00",391993,12.73,306.6,7.446,1.211,13.93,104.1776,9.97,11.13,27.92,0,110.1,13.34,10.76,268.6
"2010-12-04 00:06:30",391994,13.46,303.9,8.28,1.353,13.08,104.172,9.95,11.01,27.85,0,110.1,13.34,10.74,265.9
"2010-12-04 00:07:00",391995,13.94,314.8,7.709,1.148,14.41,104.1627,9.93,11.13,28,0,110.1,13.34,10.72,276.8
"2010-12-04 00:07:30",391996,14.44,308.6,7.742,1.463,13.92,104.1594,9.92,11.09,28.07,0,110.1,13.35,10.71,270.6
"2010-12-04 00:08:00",391997,12.13,304.1,5.007,1.411,11.62,104.149,9.9,10.91,28.02,0,110.1,13.35,10.68,266.1
"2010-12-04 00:08:30",391998,12.78,302.7,6.298,1.24,12.31,104.1476,9.89,10.94,28.23,0,110.1,13.35,10.68,264.7
"2010-12-04 00:09:00",391999,14.19,308.1,6.689,1.2,13.94,104.1424,9.88,10.97,28.38,0,110.1,13.35,10.66,270.1
"2010-12-04 00:09:30",392000,12.45,306.8,5.756,1.33,13.78,104.1309,9.85,10.97,28.47,0,110.1,13.35,10.64,268.8
"2010-12-04 00:10:00",392001,13.66,311.6,5.291,1.065,14.53,104.1213,9.82,11.07,28.68,0,110.1,13.35,10.61,273.6
"2010-12-04 00:10:30",392002,13.05,304.8,7.273,1.332,13.44,104.1204,9.82,10.94,28.64,0,110.1,13.35,10.61,266.8
"2010-12-04 00:11:00",392003,12.2,300.6,6.744,1.202,12.12,104.1203,9.82,10.89,28.7,0,110.1,13.35,10.61,262.6
"2010-12-04 00:11:30",392004,11.3,298.8,8.02,1.587,12.07,104.1048,9.78,10.74,28.59,0,110.1,13.35,10.57,260.8
"2010-12-04 00:12:00",392005,12.13,302.2,6.434,1.546,12.94,104.1034,9.78,10.93,28.79,0,110.1,13.35,10.56,264.2
"2010-12-04 00:12:30",392006,12.42,313.5,6.876,1.23,13.63,104.0998,9.77,10.88,28.86,0,110.1,13.35,10.56,275.5
"2010-12-04 00:13:00",392007,12.17,313,5.029,0.923,14.53,104.0919,9.75,10.93,28.96,0,110.1,13.35,10.54,275.0
"2010-12-04 00:13:30",392008,11.72,301.8,6.42,1.446,13.08,104.0933,9.75,10.9,28.99,0,110.1,13.35,10.54,263.8
"2010-12-04 00:14:00",392009,11.46,303.1,6.083,1.572,12.21,104.0917,9.75,10.74,28.82,0,110.1,13.35,10.53,265.1
"2010-12-04 00:14:30",392010,11.14,299.4,4.227,0.806,11.54,104.0886,9.74,10.65,28.8,0,110.1,13.34,10.53,261.4
"2010-12-04 00:15:00",392011,12.06,311.1,6.684,1.345,13.8,104.0807,9.72,10.88,29,0,110.1,13.35,10.51,273.1
"2010-12-04 00:15:30",392012,13.11,315.7,6.058,1.163,13.86,104.0762,9.71,10.8,29.02,0,110.1,13.35,10.49,277.7
"2010-12-04 00:16:00",392013,12.51,313.2,5.341,1.143,14.57,104.0627,9.67,10.91,29.21,0,110.1,13.35,10.46,275.2
"2010-12-04 00:16:30",392014,11.34,308.3,8.14,1.374,13.06,104.0639,9.68,10.79,29.08,0,110.1,13.35,10.46,270.3
"2010-12-04 00:17:00",392015,11.74,306.5,5.849,1.44,12.36,104.0645,9.68,10.72,29.11,0,110.1,13.35,10.46,268.5
"2010-12-04 00:17:30",392016,10.25,304.5,6.652,1.33,12.24,104.0636,9.68,10.68,29.09,0,110.1,13.35,10.46,266.5
"2010-12-04 00:18:00",392017,10.35,311.6,5.3,1.356,12.36,104.0642,9.68,10.74,29.13,0,110.1,13.35,10.46,273.6
"2010-12-04 00:18:30",392018,12.16,309.1,7.239,1.062,13.51,104.0647,9.68,10.78,29.25,0,110.1,13.35,10.47,271.1
"2010-12-04 00:19:00",392019,11.82,311.8,5.839,1.533,13.92,104.0645,9.68,10.79,29.31,0,110.1,13.35,10.46,273.8
"2010-12-04 00:19:30",392020,13.15,313.3,6.377,1.601,13.21,104.065,9.68,10.68,29.09,0,110.1,13.35,10.47,275.3
"2010-12-04 00:20:00",392021,13.8,314.6,6.095,0.73,11.57,104.0647,9.68,10.69,28.85,0,110.1,13.35,10.47,276.6
"2010-12-04 00:20:30",392022,12.36,316.6,6.642,1.408,12.62,104.065,9.68,10.74,29.05,0,110.1,13.35,10.47,278.6
"2010-12-04 00:21:00",392023,11.95,316.8,6.796,1.451,14.06,104.065,9.68,10.77,29.16,0,110.1,13.36,10.47,278.8
"2010-12-04 00:21:30",392024,12.21,311,5.881,0.908,14.26,104.065,9.68,10.81,29.34,0,110.1,13.36,10.47,273.0
"2010-12-04 00:22:00",392025,13.12,315.3,6.955,1.302,13.75,104.065,9.68,10.79,29.18,0,110.1,13.36,10.47,277.3
"2010-12-04 00:22:30",392026,12.12,315,5.131,1.42,12.62,104.065,9.68,10.74,29.14,0,110.1,13.36,10.47,277.0
"2010-12-04 00:23:00",392027,11.91,315.1,7.899,1.147,13.67,104.065,9.68,10.71,29.12,0,110.1,13.36,10.47,277.1
"2010-12-04 00:23:30",392028,10.79,314.3,6.344,1.086,12.07,104.065,9.68,10.68,29.07,0,110.1,13.36,10.47,276.3
"2010-12-04 00:24:00",392029,12.61,314.6,7.475,1.311,13.62,104.065,9.68,10.79,29.03,0,110.1,13.36,10.47,276.6
"2010-12-04 00:24:30",392030,13.37,319.6,5.774,0.913,14.43,104.0667,9.68,10.78,28.78,0,110.1,13.36,10.47,281.6
"2010-12-04 00:25:00",392031,13.02,319.1,5.606,1.227,14.27,104.0882,9.74,10.78,28.77,0,110.1,13.36,10.53,281.1
"2010-12-04 00:25:30",392032,11.75,312.1,4.99,1.085,11.78,104.0938,9.75,10.76,28.97,0,110.1,13.36,10.54,274.1
"2010-12-04 00:26:00",392033,12.22,312.1,6.993,1.298,13.48,104.0972,9.76,10.79,28.88,0,110.1,13.36,10.55,274.1
"2010-12-04 00:26:30",392034,11.17,319.3,7.15,1.304,13.56,104.0989,9.77,10.74,28.9,0,110.1,13.36,10.55,281.3
"2010-12-04 00:27:00",392035,11.71,320.4,6.5,1.134,14.11,104.0989,9.77,10.81,28.83,0,110.1,13.36,10.55,282.4
"2010-12-04 00:27:30",392036,11.3,319.1,7.168,1.313,13.49,104.0989,9.77,10.83,28.94,0,110.1,13.36,10.55,281.1
"2010-12-04 00:28:00",392037,9.83,310.4,5.794,1.44,11.37,104.0989,9.77,10.75,28.87,0,110.1,13.36,10.55,272.4
"2010-12-04 00:28:30",392038,10.74,318.1,6.417,1.382,13.87,104.0989,9.77,10.77,28.72,0,110.1,13.36,10.55,280.1
"2010-12-04 00:29:00",392039,9.8,317.5,8.04,1.386,12.64,104.0989,9.77,10.7,28.8,0,110.1,13.36,10.55,279.5
"2010-12-04 00:29:30",392040,11.31,319.5,4.442,0.921,12.19,104.0989,9.77,10.72,28.57,0,110.1,13.36,10.55,281.5
"2010-12-04 00:30:00",392041,10.77,330.9,8.87,1.431,14.07,104.1017,9.77,10.82,28.11,0,110.1,13.36,10.56,292.9
"2010-12-04 00:30:30",392042,10.44,317.3,7.631,1.472,12.99,104.1125,9.8,10.81,28.21,0,110.1,13.35,10.59,279.3
"2010-12-04 00:31:00",392043,9.63,318.1,7.005,1.46,13.09,104.1229,9.83,10.8,28.21,0,110.1,13.35,10.61,280.1
"2010-12-04 00:31:30",392044,10.43,321.1,6.991,1.365,12.99,104.1283,9.84,10.84,28.28,0,110.1,13.35,10.63,283.1
"2010-12-04 00:32:00",392045,9.98,318.5,6.14,1.721,12.72,104.1314,9.85,10.86,28.26,0,110.1,13.36,10.64,280.5
"2010-12-04 00:32:30",392046,10.93,328.2,6.719,1.35,14.66,104.1328,9.85,10.97,27.88,0,110.1,13.35,10.64,290.2
"2010-12-04 00:33:00",392047,10.36,318.4,8.28,1.294,13.83,104.1398,9.87,10.88,27.68,0,110.1,13.35,10.66,280.4
"2010-12-04 00:33:30",392048,10.34,320.4,8.14,1.422,13.42,104.1523,9.9,10.84,27.71,0,110.1,13.35,10.69,282.4
"2010-12-04 00:34:00",392049,9.63,314.8,6.548,1.217,11.32,104.1602,9.92,10.79,27.69,0,110.1,13.35,10.71,276.8
"2010-12-04 00:34:30",392050,10.36,327.5,7.101,1.381,14.04,104.1664,9.94,10.96,27.84,0,110.1,13.36,10.73,289.5
"2010-12-04 00:35:00",392051,11.39,329.9,6.506,1.146,14.37,104.1667,9.94,10.98,27.94,0,110.1,13.36,10.73,291.9
"2010-12-04 00:35:30",392052,9.99,343.2,8.89,1.08,13.71,104.1667,9.94,10.93,28.01,0,110.1,13.36,10.73,305.2
"2010-12-04 00:36:00",392053,12.47,339.4,7.998,1.211,14.49,104.1667,9.94,11.02,27.65,0,110.1,13.36,10.73,301.4
"2010-12-04 00:36:30",392054,11.37,336,8.38,1.58,13.24,104.1667,9.94,10.93,27.49,0,110.1,13.36,10.73,298.0
"2010-12-04 00:37:00",392055,9.22,333.2,7.141,1.301,12.82,104.1667,9.94,10.84,27.45,0,110.1,13.36,10.73,295.2
"2010-12-04 00:37:30",392056,7.907,316.6,8.53,1.102,12.51,104.1681,9.94,11.02,27.84,0,110.1,13.36,10.73,278.6
"2010-12-04 00:38:00",392057,6.437,306.8,5.281,0.935,11.02,104.159,9.92,10.89,28.24,0,110.1,13.36,10.71,268.8
"2010-12-04 00:38:30",392058,8.02,323,7.138,1.166,13.54,104.1345,9.86,10.9,28.22,0,110.1,13.36,10.64,285.0
"2010-12-04 00:39:00",392059,9.55,322.9,7.307,1.544,13.41,104.1328,9.85,10.93,27.92,0,110.1,13.36,10.64,284.9
"2010-12-04 00:39:30",392060,8.73,322.9,7.297,1.344,12.74,104.1336,9.86,10.87,27.56,0,110.1,13.36,10.64,284.9
"2010-12-04 00:40:00",392061,8.38,337.2,6.423,1.218,12.1,104.1407,9.87,10.91,27.57,0,110.1,13.36,10.66,299.2
"2010-12-04 00:40:30",392062,7.782,335.4,5.542,1.174,11.04,104.1492,9.9,10.82,27.46,0,110.1,13.37,10.68,297.4
"2010-12-04 00:41:00",392063,9.16,354.1,5.76,1.022,14.19,104.1336,9.86,10.92,27.74,0,110.1,13.37,10.64,316.1
"2010-12-04 00:41:30",392064,8.04,353.4,9.64,1.435,12.9,104.1328,9.85,10.84,27.58,0,110.1,13.37,10.64,315.4
"2010-12-04 00:42:00",392065,7.934,337.7,6.855,1.479,12.65,104.1308,9.85,10.97,27.87,0,110.1,13.37,10.63,299.7
"2010-12-04 00:42:30",392066,6.148,337.6,7.74,1.629,11.84,104.1077,9.79,10.83,27.91,0,110.1,13.37,10.58,299.6
"2010-12-04 00:43:00",392067,6.764,337.2,6.534,0.341,9.73,104.0981,9.76,10.69,27.81,0,110.1,13.4,10.55,299.2
"2010-12-04 00:43:30",392068,6.389,336.1,3.772,0.69,9.92,104.0746,9.7,10.69,27.91,0,110.1,13.37,10.49,298.1
"2010-12-04 00:44:00",392069,6.019,336.1,6.263,1.247,13.11,104.0783,9.71,10.76,27.97,0,110.1,13.37,10.50,298.1
"2010-12-04 00:44:30",392070,5.408,347.4,13.11,1.571,13.01,104.0834,9.73,10.88,28.17,0,110.1,13.37,10.51,309.4
"2010-12-04 00:45:00",392071,5.435,340.4,9.18,1.391,13.06,104.065,9.68,10.87,28.25,0,110.1,13.37,10.47,302.4
"2010-12-04 00:45:30",392072,6.884,341.7,11.72,1.401,13.35,104.0645,9.68,10.79,28.19,0,110.1,13.37,10.46,303.7
"2010-12-04 00:46:00",392073,7.731,339.6,5.847,1.056,12.19,104.065,9.68,10.73,28.23,0,110.1,13.37,10.47,301.6
"2010-12-04 00:46:30",392074,5.885,327,11.26,1.06,9.88,104.0659,9.68,10.57,28.06,0,110.1,13.4,10.47,289.0
"2010-12-04 00:47:00",392075,4.694,312.9,8.95,0.687,10.09,104.0794,9.72,10.67,28.16,0,110.1,13.4,10.50,274.9
"2010-12-04 00:47:30",392076,7.199,337.5,8.44,1.803,13.81,104.0851,9.73,10.72,28.17,0,110.1,13.36,10.52,299.5
"2010-12-04 00:48:00",392077,8.1,335.3,8.19,1.38,14.09,104.0732,9.7,10.88,28.39,0,110.1,13.36,10.49,297.3
"2010-12-04 00:48:30",392078,9.17,334.8,11.19,1.45,13.56,104.065,9.68,10.81,28.43,0,110.1,13.36,10.47,296.8
"2010-12-04 00:49:00",392079,12.12,325.7,15.11,2.579,13.12,104.065,9.68,10.74,28.54,0,110.1,13.36,10.47,287.7
"2010-12-04 00:49:30",392080,10.18,313.7,8.6,1.983,11.48,104.065,9.68,10.62,28.42,0,110.1,13.36,10.47,275.7
"2010-12-04 00:50:00",392081,8.96,334.5,8.32,1.432,10.61,104.0648,9.68,10.55,28.4,0,110.1,13.36,10.47,296.5
"2010-12-04 00:50:30",392082,9.34,351.6,9.08,3.047,13.48,104.0504,9.64,10.77,28.58,0,110.1,13.36,10.43,313.6
"2010-12-04 00:51:00",392083,10.18,342.8,5.239,1.677,13.95,104.0334,9.6,10.76,28.55,0,110.1,13.36,10.39,304.8
"2010-12-04 00:51:30",392084,8.03,335.4,9.41,1.7,13.7,104.0312,9.59,10.72,28.63,0,110.1,13.37,10.38,297.4
"2010-12-04 00:52:00",392085,8.91,349,10.26,1.207,12.53,104.0142,9.55,10.73,28.64,0,110.1,13.37,10.34,311.0
"2010-12-04 00:52:30",392086,7.312,325.3,5.613,1.38,11.47,103.9976,9.51,10.6,28.6,0,110.1,13.37,10.29,287.3
"2010-12-04 00:53:00",392087,5.941,327,11.96,1.295,9.56,103.9835,9.47,10.42,28.6,0,110.1,13.41,10.26,289.0
"2010-12-04 00:53:30",392088,7.012,323.1,11.41,1.431,11.61,103.9713,9.44,10.55,29.21,0,110.1,13.37,10.23,285.1
"2010-12-04 00:54:00",392089,9.53,335.7,13.08,1.151,13.69,103.9674,9.43,10.58,29.37,0,110.1,13.37,10.22,297.7
"2010-12-04 00:54:30",392090,10.38,349.6,8.13,1.971,14.71,103.9637,9.42,10.66,29.47,0,110.1,13.37,10.21,311.6
"2010-12-04 00:55:00",392091,10.08,340.3,11.3,1.401,14,103.9575,9.41,10.63,29.71,0,110.1,13.37,10.19,302.3
"2010-12-04 00:55:30",392092,9.72,316.6,11.37,1.247,13.42,103.9312,9.34,10.53,29.58,0,110.1,13.37,10.12,278.6
"2010-12-04 00:56:00",392093,8.24,307.5,8.79,0.81,9.81,103.9287,9.33,10.26,29.48,0,110.1,13.37,10.12,269.5
"2010-12-04 00:56:30",392094,8.19,305.6,5.975,1.806,10.2,103.9138,9.29,10.23,29.58,0,110.1,13.37,10.08,267.6
"2010-12-04 00:57:00",392095,11.73,320.1,7.59,1.321,12.33,103.9121,9.29,10.41,30.21,0,110.1,13.37,10.07,282.1
"2010-12-04 00:57:30",392096,11.32,315.6,7.881,1.186,13.95,103.9061,9.27,10.44,30.27,0,110.1,13.37,10.06,277.6
"2010-12-04 00:58:00",392097,10.76,322,9.09,1.702,15.14,103.9005,9.26,10.53,30.45,0,110.1,13.37,10.04,284.0
"2010-12-04 00:58:30",392098,9.83,318,8.96,0.99,13.37,103.896,9.25,10.44,30.22,0,110.1,13.37,10.03,280.0
"2010-12-04 00:59:00",392099,10.8,327.5,7.819,1.684,12.14,103.8975,9.25,10.35,30.49,0,110.1,13.37,10.04,289.5
"2010-12-04 00:59:30",392100,9.92,310.7,6.026,0.851,9.63,103.8893,9.23,10.15,30.33,0,110.1,13.41,10.02,272.7
"2010-12-04 01:00:00",392101,12.98,315.8,6.976,1.26,13.01,103.891,9.24,10.36,30.65,0,110.1,13.37,10.02,277.8
"2010-12-04 01:00:30",392102,11.97,316,7.302,1.275,14.23,103.8989,9.26,10.37,30.72,0,110.1,13.37,10.04,278.0
"2010-12-04 01:01:00",392103,11.57,327.5,5.602,1.079,14.93,103.9024,9.26,10.47,30.88,0,110.1,13.37,10.05,289.5
"2010-12-04 01:01:30",392104,13.05,324.3,5.191,1.269,14.65,103.9018,9.26,10.47,30.96,0,110.1,13.37,10.05,286.3
"2010-12-04 01:02:00",392105,14.59,324.5,5.463,1.362,14.27,103.9009,9.26,10.46,31.05,0,110.1,13.37,10.04,286.5
"2010-12-04 01:02:30",392106,15.22,325.5,4.797,1.04,14.29,103.9036,9.27,10.46,31.12,0,110.1,13.37,10.05,287.5
"2010-12-04 01:03:00",392107,16.34,322,4.023,0.781,14.16,103.9045,9.27,10.47,31.07,0,110.1,13.36,10.05,284.0
"2010-12-04 01:03:30",392108,16.71,320.8,4.96,0.91,14.09,103.9062,9.27,10.46,31.17,0,110.1,13.36,10.06,282.8
"2010-12-04 01:04:00",392109,16.37,320,4.264,0.855,14.21,103.9094,9.28,10.47,31.04,0,110.1,13.36,10.07,282.0
"2010-12-04 01:04:30",392110,16.57,322,4.26,0.786,14.1,103.9092,9.28,10.49,31.18,0,110.1,13.36,10.07,284.0
"2010-12-04 01:05:00",392111,17.05,323,3.614,0.628,14.09,103.9112,9.29,10.46,31.13,0,110.1,13.36,10.07,285.0
"2010-12-04 01:05:30",392112,16.55,322.7,4.389,0.633,14.18,103.9124,9.29,10.47,30.86,0,110.1,13.36,10.07,284.7
"2010-12-04 01:06:00",392113,15.85,325.2,4.076,0.703,13.98,103.924,9.32,10.49,30.95,0,110.1,13.36,10.10,287.2
"2010-12-04 01:06:30",392114,15.97,321.7,4.232,0.862,14.14,103.928,9.33,10.5,30.99,0,110.1,13.36,10.11,283.7
"2010-12-04 01:07:00",392115,15.46,320.4,4.165,0.603,13.93,103.9303,9.34,10.5,31.01,0,110.1,13.36,10.12,282.4
"2010-12-04 01:07:30",392116,15.33,320,5.268,0.916,13.92,103.9277,9.33,10.52,30.9,0,110.1,13.36,10.11,282.0
"2010-12-04 01:08:00",392117,15.96,322.4,3.989,0.62,13.77,103.9326,9.34,10.51,30.94,0,110.1,13.36,10.13,284.4
"2010-12-04 01:08:30",392118,15.07,318.4,4.894,0.789,13.84,103.9306,9.34,10.5,31.02,0,110.1,13.36,10.12,280.4
"2010-12-04 01:09:00",392119,13.68,314.7,3.615,0.942,13.5,103.9324,9.34,10.52,31.07,0,110.1,13.36,10.13,276.7
"2010-12-04 01:09:30",392120,12.48,308.9,7.217,1.647,12.19,103.9153,9.3,10.41,31.18,0,110.1,13.36,10.08,270.9
"2010-12-04 01:10:00",392121,9.02,288.4,3.878,0.77,8.84,103.8876,9.23,10.15,31.08,0,110.1,13.4,10.01,250.4
"2010-12-04 01:10:30",392122,7.075,282.3,5.96,0.326,8.98,103.8687,9.18,10.16,31.19,0,110.1,13.4,9.96,244.3
"2010-12-04 01:11:00",392123,8.66,292,6.967,1.441,11.51,103.849,9.13,10.16,31.2,0,110.1,13.37,9.91,254.0
"2010-12-04 01:11:30",392124,8.22,288.8,7.371,1.057,13.35,103.8431,9.11,10.31,31.48,0,110.1,13.37,9.90,250.8
"2010-12-04 01:12:00",392125,8.56,305,6.586,1.01,13.85,103.8177,9.05,10.29,31.59,0,110.1,13.37,9.83,267.0
"2010-12-04 01:12:30",392126,9.41,306.2,6.49,0.931,13.89,103.8184,9.05,10.27,31.56,0,110.1,13.37,9.83,268.2
"2010-12-04 01:13:00",392127,8.67,301.8,5.03,0.984,10.92,103.8175,9.05,10,31.33,0,110.1,13.37,9.83,263.8
"2010-12-04 01:13:30",392128,8.32,304.4,6.485,0.659,9.19,103.8163,9.04,9.98,31.33,0,110.1,13.37,9.83,266.4
"2010-12-04 01:14:00",392129,9.74,315,9.23,1.856,11.34,103.8192,9.05,10.11,31.54,0,110.1,13.37,9.84,277.0
"2010-12-04 01:14:30",392130,9.04,311.9,8.12,0.997,11.97,103.8198,9.05,10.07,31.51,0,110.1,13.37,9.84,273.9
"2010-12-04 01:15:00",392131,10.35,319,7.528,1.878,13.62,103.8207,9.06,10.23,31.7,0,110.1,13.38,9.84,281.0
"2010-12-04 01:15:30",392132,11.87,317.7,6.489,1.185,14.43,103.8207,9.06,10.23,31.7,0,110.1,13.38,9.84,279.7
"2010-12-04 01:16:00",392133,13.25,319.3,7.45,1.04,13.94,103.8219,9.06,10.22,31.65,0,110.1,13.37,9.84,281.3
"2010-12-04 01:16:30",392134,10.96,322.4,8.89,1.156,13.86,103.8219,9.06,10.24,31.7,0,110.1,13.37,9.84,284.4
"2010-12-04 01:17:00",392135,8.85,314.7,6.055,1.188,11.2,103.8222,9.06,9.99,31.53,0,110.1,13.37,9.84,276.7
"2010-12-04 01:17:30",392136,7.632,317.5,3.904,0.868,9.83,103.8228,9.06,10.03,31.59,0,110.1,13.37,9.84,279.5
"2010-12-04 01:18:00",392137,8.06,313.3,0.887,0.206,9.69,103.826,9.07,9.92,31.51,0,110.1,13.41,9.85,275.3
"2010-12-04 01:18:30",392138,9.49,317,4.534,1.244,13.06,103.826,9.07,10.19,31.82,0,110.1,13.38,9.85,279.0
"2010-12-04 01:19:00",392139,8.79,317.5,5.431,1.179,14.67,103.8236,9.06,10.24,31.89,0,110.1,13.38,9.85,279.5
"2010-12-04 01:19:30",392140,10.11,312.5,9.38,1.215,13.99,103.8257,9.07,10.2,31.89,0,110.1,13.37,9.85,274.5
"2010-12-04 01:20:00",392141,10.68,315.6,7.805,1.095,11.85,103.8189,9.05,10.04,31.79,0,110.1,13.37,9.83,277.6
"2010-12-04 01:20:30",392142,10.48,318.2,7.794,1.639,11.41,103.8142,9.04,10.03,31.8,0,110.1,13.37,9.82,280.2
"2010-12-04 01:21:00",392143,9.34,309.5,4.899,0.433,9.83,103.7995,9,9.89,31.71,0,110.1,13.41,9.78,271.5
"2010-12-04 01:21:30",392144,11.82,310.3,7.61,0.949,13.66,103.793,8.98,10.11,31.96,0,110.1,13.37,9.77,272.3
"2010-12-04 01:22:00",392145,10.41,314.3,10.91,1.13,14.49,103.7927,8.98,10.2,32.08,0,110.1,13.37,9.77,276.3
"2010-12-04 01:22:30",392146,13.61,314,5.936,1.823,14.37,103.791,8.98,10.16,32.07,0,110.1,13.37,9.76,276.0
"2010-12-04 01:23:00",392147,13.69,312.5,5.596,1.253,13.33,103.7879,8.97,10.07,32.04,0,110.1,13.37,9.76,274.5
"2010-12-04 01:23:30",392148,12.56,317.2,4.813,2.033,11.79,103.7905,8.98,9.96,31.92,0,110.1,13.37,9.76,279.2
"2010-12-04 01:24:00",392149,11.99,314,8.27,0.995,11.64,103.7899,8.98,9.91,31.91,0,110.1,13.37,9.76,276.0
"2010-12-04 01:24:30",392150,10.66,319.8,9.26,0.779,11.46,103.7928,8.98,9.96,32.06,0,110.1,13.37,9.77,281.8
"2010-12-04 01:25:00",392151,11.07,322.5,7.513,1.309,13.38,103.7877,8.97,10.05,32.12,0,110.1,13.38,9.75,284.5
"2010-12-04 01:25:30",392152,12.05,321.1,5.204,0.914,14.65,103.7786,8.95,10.13,32.24,0,110.1,13.38,9.73,283.1
"2010-12-04 01:26:00",392153,11.74,319.7,4.396,1.146,14.09,103.775,8.94,10.13,32.26,0,110.1,13.38,9.72,281.7
"2010-12-04 01:26:30",392154,10.34,317.4,8.2,1.397,12.06,103.7733,8.93,9.89,31.96,0,110.1,13.38,9.72,279.4
"2010-12-04 01:27:00",392155,9.73,310.5,4.747,1.504,10.97,103.788,8.97,9.83,31.67,0,110.1,13.38,9.76,272.5
"2010-12-04 01:27:30",392156,9.98,315.7,7.11,1.327,12.15,103.7953,8.99,9.98,31.93,0,110.1,13.38,9.77,277.7
"2010-12-04 01:28:00",392157,9.96,324,9.98,1.208,12.96,103.7953,8.99,10.03,32.06,0,110.1,13.38,9.77,286.0
"2010-12-04 01:28:30",392158,9.85,325,5.532,1.024,13.91,103.7868,8.97,10.11,32.22,0,110.1,13.38,9.75,287.0
"2010-12-04 01:29:00",392159,10.84,329.4,5.582,1.147,13.85,103.7676,8.92,10.09,32.28,0,110,13.38,9.70,291.4
"2010-12-04 01:29:30",392160,8.35,312.1,10.46,1.452,10.9,103.7614,8.9,9.87,32.19,0,110.1,13.38,9.69,274.1
"2010-12-04 01:30:00",392161,9.28,318.8,6.811,1.779,11.82,103.7614,8.9,9.89,32.26,0,110.1,13.38,9.69,280.8
"2010-12-04 01:30:30",392162,9.46,305.1,8.19,2.517,10.72,103.7465,8.87,9.91,32.36,0,110.1,13.39,9.65,267.1
"2010-12-04 01:31:00",392163,13.12,308.5,6.843,1.299,12.74,103.7281,8.82,9.8,32.42,0,110.1,13.39,9.60,270.5
"2010-12-04 01:31:30",392164,12.68,317.7,6.265,1.331,14.67,103.7275,8.82,10.03,32.67,0,110.1,13.39,9.60,279.7
"2010-12-04 01:32:00",392165,13.3,323.8,5.699,1.823,14.66,103.7275,8.82,10.01,32.65,0,110.1,13.39,9.60,285.8
"2010-12-04 01:32:30",392166,11.91,317.5,5.898,1.04,13.62,103.7275,8.82,9.93,32.66,0,110.1,13.39,9.60,279.5
"2010-12-04 01:33:00",392167,10.93,298.5,4.791,1.902,10.69,103.7275,8.82,9.79,32.6,0,110.1,13.38,9.60,260.5
"2010-12-04 01:33:30",392168,10.62,308.8,8.38,1.339,10.86,103.7129,8.78,9.83,32.68,0,110,13.39,9.56,270.8
"2010-12-04 01:34:00",392169,9.47,311.8,9.48,1.669,10.57,103.6937,8.73,9.69,32.62,0,110.1,13.39,9.51,273.8
"2010-12-04 01:34:30",392170,10.67,307.7,11.66,1.454,13.17,103.6917,8.73,9.89,33.05,0,110.1,13.39,9.51,269.7
"2010-12-04 01:35:00",392171,10.93,309,5.145,0.666,14.37,103.6745,8.68,9.91,33.28,0,110.1,13.39,9.46,271.0
"2010-12-04 01:35:30",392172,9.34,310.9,7.807,1.206,12.96,103.6603,8.65,9.77,33.27,0,110.1,13.38,9.43,272.9
"2010-12-04 01:36:00",392173,6.92,327.9,8.57,1.369,10.75,103.651,8.62,9.69,33.18,0,110,13.38,9.40,289.9
"2010-12-04 01:36:30",392174,5.455,336.4,11.27,1.637,9.54,103.6262,8.56,9.51,32.95,0,110.1,13.38,9.34,298.4
"2010-12-04 01:37:00",392175,4.151,351.1,23.25,1.166,10.28,103.6259,8.56,9.6,33.05,0,110,13.38,9.34,313.1
"2010-12-04 01:37:30",392176,8.54,330.4,13.67,2.563,11.58,103.6253,8.56,9.6,33.18,0,110.1,13.38,9.34,292.4
"2010-12-04 01:38:00",392177,6.062,351.8,12.57,2.013,12.85,103.6259,8.56,9.73,33.35,0,110.1,13.38,9.34,313.8
"2010-12-04 01:38:30",392178,6.054,344.8,15.46,1.854,13.02,103.6259,8.56,9.68,33.28,0,110,13.38,9.34,306.8
"2010-12-04 01:39:00",392179,4.749,314.1,10.64,1.432,9.93,103.6259,8.56,9.52,33.1,0,110.1,13.38,9.34,276.1
"2010-12-04 01:39:30",392180,5.559,313.4,9.03,1.132,9.45,103.6256,8.56,9.43,33.05,0,110,13.38,9.34,275.4
"2010-12-04 01:40:00",392181,4.334,309.6,18.89,1.017,10.87,103.6019,8.5,9.53,33.19,0,110.1,13.38,9.28,271.6
"2010-12-04 01:40:30",392182,3.781,324.5,46.02,0.644,10.49,103.592,8.47,9.51,33.21,0,110,13.39,9.25,286.5
"2010-12-04 01:41:00",392183,2.12,39.85,14.78,1.27,9.97,103.592,8.47,9.47,33.21,0,110,13.39,9.25,1.8
"2010-12-04 01:41:30",392184,4.321,36.2,21.98,1.145,13.98,103.596,8.48,9.58,33.24,0,110.1,13.39,9.26,358.2
"2010-12-04 01:42:00",392185,4.836,38.37,9.68,1.823,12.03,103.6044,8.5,9.57,33.2,0,110,13.39,9.28,0.4
"2010-12-04 01:42:30",392186,3.778,47.41,10.64,1.797,10.55,103.6056,8.51,9.48,33.12,0,110,13.39,9.29,9.4
"2010-12-04 01:43:00",392187,4.759,59.67,13.29,1.21,9.78,103.6104,8.52,9.37,33.05,0,110,13.39,9.30,21.7
"2010-12-04 01:43:30",392188,3.555,43.22,12.57,0.495,9,103.6053,8.5,9.49,33.09,0,110,13.4,9.29,5.2
"2010-12-04 01:44:00",392189,4.404,61.94,19.92,1.46,11.96,103.6061,8.51,9.51,32.95,0,110,13.4,9.29,23.9
"2010-12-04 01:44:30",392190,3.897,60.68,23.75,1.393,11.39,103.607,8.51,9.5,33.06,0,110,13.4,9.29,22.7
"2010-12-04 01:45:00",392191,3.075,52.66,10.04,0.676,9.22,103.6067,8.51,9.37,33,0,110.1,13.4,9.29,14.7
"2010-12-04 01:45:30",392192,4.554,52.62,11.06,1.359,11.87,103.605,8.5,9.61,33.36,0,110,13.4,9.29,14.6
"2010-12-04 01:46:00",392193,1.911,9.72,29.09,1.258,10.82,103.5923,8.47,9.43,33.55,0,110,13.4,9.25,331.7
"2010-12-04 01:46:30",392194,2.567,350.1,16.93,0.583,8.31,103.5807,8.44,9.32,33.5,0,110,13.43,9.22,312.1
"2010-12-04 01:47:00",392195,2.549,19.53,8.07,0.705,8.08,103.5587,8.39,9.3,33.73,0,110,13.44,9.17,341.5
"2010-12-04 01:47:30",392196,1.635,4.435,18.18,1.264,9.38,103.5581,8.38,9.45,33.84,0,110,13.4,9.17,326.4
"2010-12-04 01:48:00",392197,2.953,1.096,28.71,1.619,11.85,103.542,8.34,9.43,33.94,0,110,13.4,9.12,323.1
"2010-12-04 01:48:30",392198,2.494,290.5,10.02,1.532,10.58,103.5242,8.3,9.39,34.02,0,110,13.4,9.08,252.5
"2010-12-04 01:49:00",392199,0.759,18.74,38.02,0.504,8.64,103.5242,8.3,9.21,34,0,110,13.44,9.08,340.7
"2010-12-04 01:49:30",392200,4.024,344.4,41.58,2.293,11.53,103.5242,8.3,9.37,34.38,0,110,13.4,9.08,306.4
"2010-12-04 01:50:00",392201,8.6,302.7,11.38,3.647,12.51,103.5242,8.3,9.39,34.5,0,110,13.4,9.08,264.7